Dansville, NY

7:16 PM EDT on September 22, 2019 (GMT -0400)
Dansville Municipal

Weather History for KDSV - August, 2019

Change the Weather History Date:

Saturday, August 24, 2019

  Actual Average Record
Temperature  
Mean Temperature 58 °F -  
Max Temperature 66 °F 78 °F 93 °F (2007)
Min Temperature 50 °F 53 °F 38 °F (1971)
Degree Days  
Heating Degree Days 7    
Growing Degree Days 8 (Base 50)    
Moisture  
Dew Point 53 °F    
Average Humidity 78    
Maximum Humidity 93    
Minimum Humidity 60    
Precipitation  
Precipitation 0.00 in - - ()
Sea Level Pressure  
Sea Level Pressure 30.30 in    
Wind  
Wind Speed 3 mph ()    
Max Wind Speed 9 mph    
Max Gust Speed -    
Visibility 10.0 miles    
Events      
Averages and records for this station are not official NWS values.
T = Trace of Precipitation, MM = Missing Value Source: Averaged Metar Reports

Daily Weather History Graph

Daily Weather History Graph

Search for Another Location

Airport or City:

Astronomy

Aug. 24, 2019 Rise Set
Actual Time 6:26 AM EDT 7:58 PM EDT
Civil Twilight 5:57 AM EDT 8:28 PM EDT
Nautical Twilight 5:21 AM EDT 9:03 PM EDT
Astronomical Twilight 4:43 AM EDT 9:41 PM EDT
Moon 12:16 AM EDT (8/24) 3:15 PM EDT (8/24)
Length of Visible Light 14h 30m
Length of Day
13h 31m
Last Quarter, 39% of the Moon is Illuminated
Aug 24
Last Quarter
Aug 30
New
Sep 5
First Quarter
Sep 14
Full
Sep 21
Last Quarter

Hourly Weather History & Observations

Time (EDT) Temp. Dew Point Humidity Pressure Visibility Wind Dir Wind Speed Gust Speed Precip Events Conditions
12:54 AM 53.1 °F 51.1 °F 93% 30.23 in 10.0 mi Calm Calm - N/A   Partly Cloudy
1:54 AM 54.0 °F 51.1 °F 90% 30.24 in 10.0 mi SSE 5.8 mph - N/A   Mostly Cloudy
2:54 AM 53.1 °F 50.0 °F 89% 30.25 in 10.0 mi SSE 5.8 mph - N/A   Mostly Cloudy
3:54 AM 52.0 °F 50.0 °F 93% 30.25 in 10.0 mi SE 6.9 mph - N/A   Mostly Cloudy
4:54 AM 52.0 °F 48.9 °F 89% 30.26 in 10.0 mi SSE 5.8 mph - N/A   Mostly Cloudy
5:54 AM 50.0 °F 48.0 °F 93% 30.27 in 10.0 mi SSE 4.6 mph - N/A   Clear
6:54 AM 51.1 °F 48.9 °F 92% 30.30 in 10.0 mi SSE 4.6 mph - N/A   Overcast
7:54 AM 54.0 °F 50.0 °F 86% 30.32 in 10.0 mi Calm Calm - N/A   Clear
8:54 AM 59.0 °F 53.1 °F 81% 30.32 in 10.0 mi SSE 3.5 mph - N/A   Partly Cloudy
9:54 AM 61.0 °F 53.1 °F 75% 30.32 in 10.0 mi NNW 3.5 mph - N/A   Overcast
10:54 AM 64.9 °F 55.0 °F 70% 30.31 in 10.0 mi NW 5.8 mph - N/A   Mostly Cloudy
11:54 AM 64.9 °F 54.0 °F 68% 30.31 in 10.0 mi WNW 9.2 mph - N/A   Overcast
12:54 PM 66.0 °F 54.0 °F 65% 30.30 in 10.0 mi NW 8.1 mph - N/A   Overcast
1:54 PM 66.0 °F 53.1 °F 63% 30.30 in 10.0 mi NW 4.6 mph - N/A   Overcast
2:54 PM 66.0 °F 54.0 °F 65% 30.30 in 10.0 mi North 4.6 mph - N/A   Overcast
3:54 PM 66.0 °F 52.0 °F 60% 30.30 in 10.0 mi NNW 4.6 mph - N/A   Overcast
4:54 PM 66.9 °F 53.1 °F 61% 30.29 in 10.0 mi Calm Calm - N/A   Overcast
5:54 PM 66.0 °F 53.1 °F 63% 30.30 in 10.0 mi North 3.5 mph - N/A   Overcast
6:54 PM 66.0 °F 54.0 °F 65% 30.31 in 10.0 mi NW 4.6 mph - N/A   Overcast
7:54 PM 64.0 °F 55.0 °F 73% 30.31 in 10.0 mi Calm Calm - N/A   Overcast
8:54 PM 63.0 °F 55.0 °F 75% 30.32 in 10.0 mi Calm Calm - N/A   Overcast
9:54 PM 61.0 °F 55.9 °F 83% 30.33 in 10.0 mi South 3.5 mph - N/A   Overcast
10:54 PM 60.1 °F 55.9 °F 86% 30.33 in 10.0 mi Calm Calm - N/A   Overcast
11:54 PM 57.0 °F 55.0 °F 93% 30.34 in 10.0 mi SW 3.5 mph - N/A   Clear